Regional Weather Roundup
Issued by NWS

Home | Current Version | Previous Version | Text Only | Print | Product List | Glossary On
Versions: 1 2 3 4 5 6 7 8 9 10 11 12 13 14 15 16 17 18 19 20 21 22 23 24 25 26 27 28 29 30 31 32 33 34 35 36 37 38 39 40 41 42 43 44 45 46 47 48 49 50
000
ASUS43 KBIS 280810
RWRND

NORTH DAKOTA REGIONAL WEATHER ROUNDUP
NATIONAL WEATHER SERVICE BISMARCK ND
300 AM CDT THU JUL 28 2016

NOTE: "FAIR" INDICATES FEW OR NO CLOUDS BELOW 12,000 FEET WITH NO
SIGNIFICANT WEATHER AND/OR OBSTRUCTIONS TO VISIBILITY.


NDZ001>003-009>011-017-280900-
NORTHWEST NORTH DAKOTA

CITY           SKY/WX    TMP DP  RH WIND       PRES   REMARKS
WILLISTON      CLOUDY    65  60  84 CALM      30.16S
MINOT          CLOUDY    63  57  81 NE3       30.15S
MINOT AFB      CLOUDY    60  55  84 E6        30.15S
$$

NDZ018>021-031>035-040>046-280900-
SOUTHWEST NORTH DAKOTA

CITY           SKY/WX    TMP DP  RH WIND       PRES   REMARKS
BISMARCK       LGT RAIN  64  61  90 NE3       30.13F
DICKINSON      CLEAR     57  56  96 NE5       30.12S
GARRISON         N/A     62  59  90 E5        30.15S
HETTINGER ARPT CLEAR     59  56  89 E9        30.13R
$$

NDZ004>008-012>016-024-026-027-054-280900-
NORTHEAST NORTH DAKOTA

CITY           SKY/WX    TMP DP  RH WIND       PRES   REMARKS
GRAND FORKS    CLOUDY    62  57  83 N10       30.09S
GRND FRKS AFB  MOCLDY    60  56  87 N8        30.10F
DEVILS LAKE    PTCLDY    56  54  93 NE6       30.16S
$$

NDZ022-023-025-028>030-036>039-047>053-280900-
SOUTHEAST NORTH DAKOTA

CITY           SKY/WX    TMP DP  RH WIND       PRES   REMARKS
FARGO          CLOUDY    63  59  87 N3        30.06S
JAMESTOWN      PTCLDY    58  56  93 N5        30.12S
$$





USA.gov is the U.S. government's official web portal to all federal, state and local government web resources and services.